This is the latest recevied weather packets stored in our database for station/object 2E1HJE-10. If no packets are shown the sender has not sent any weather packets the latest 10 day(s).
| Time | Temp. | Humidity | Pressure | Rain* | Wind** | Luminosity | Snow |
|---|---|---|---|---|---|---|---|
| 1777670307 | 15° C | 89% | 1020 hPa | 0.51 mm | - | - | - |
| 1777669707 | 15.56° C | 89% | 1020 hPa | 0.51 mm | - | - | - |
| 1777669107 | 15.56° C | 70% | 1019.8 hPa | 0 mm | - | - | - |
| 1777668507 | 15.56° C | 70% | 1019.8 hPa | 0 mm | - | - | - |
| 1777667908 | 16.67° C | 68% | 1019.9 hPa | 0 mm | - | - | - |
| 1777667307 | 17.22° C | 68% | 1019.9 hPa | 0 mm | - | - | - |
| 1777666707 | 17.22° C | 68% | 1019.9 hPa | 0 mm | - | - | - |
| 1777666108 | 17.78° C | 68% | 1019.9 hPa | 0 mm | - | - | - |
| 1777665508 | 16.11° C | 67% | 1019.7 hPa | 0 mm | - | - | - |
| 1777664907 | 16.11° C | 69% | 1019.6 hPa | 0 mm | - | - | - |
| 1777664307 | 16.67° C | 69% | 1019.6 hPa | 0 mm | - | - | - |
| 1777663708 | 17.22° C | 69% | 1019.6 hPa | 0 mm | - | - | - |
| 1777662507 | 17.78° C | 69% | 1019.6 hPa | 0 mm | - | - | - |
| 1777661908 | 18.33° C | 61% | 1019.6 hPa | 0 mm | - | - | - |
| 1777660708 | 18.89° C | 61% | 1019.6 hPa | 0 mm | - | - | - |
| 1777660108 | 19.44° C | 61% | 1019.6 hPa | 0 mm | - | - | - |
| 1777658907 | 20° C | 61% | 1019.6 hPa | 0 mm | - | - | - |
| 1777657107 | 20.56° C | 55% | 1019.5 hPa | 0 mm | - | - | - |
| 1777656508 | 20.56° C | 55% | 1019.5 hPa | 0 mm | - | - | - |
| 1777655909 | 21.11° C | 55% | 1019.4 hPa | 0 mm | - | - | - |
| 1777655307 | 21.11° C | 55% | 1019.4 hPa | 0 mm | - | - | - |
| 1777654709 | 21.11° C | 56% | 1019.7 hPa | 0 mm | - | - | - |
| 1777654107 | 21.11° C | 56% | 1019.7 hPa | 0 mm | - | - | - |
| 1777653507 | 21.11° C | 56% | 1019.6 hPa | 0 mm | - | - | - |
| 1777652907 | 21.11° C | 56% | 1019.6 hPa | 0 mm | - | - | - |
* Rain latest hour (hover to see other rain measurements)
** Current wind speed in m/s (hover to see current wind gust speed)